Simultaneous Nadir Overpasses (SNOs) Predictions

Prediction of SNOs between GOES-16 and TERRA Satellite Orbit:

Table of predicted SNOs for the next 14.0 days since TLE Epoch: 6/22/2024
Index Date Time (GOES-16) GOES-16 Lat,Lon TERRA Lat,Lon Distance(km) Time Diff (sec)
1 06/23/2024 02:37:28 -0.04, -75.20 0.51, -72.45 312.61 80
2 06/23/2024 14:54:43 0.04, -75.21 0.48, -77.29 236.80 80
3 06/25/2024 14:39:57 0.03, -75.22 -0.41, -73.09 242.01 80
4 06/26/2024 02:57:19 -0.03, -75.22 -0.60, -77.97 312.38 80
5 06/28/2024 02:42:32 -0.03, -75.24 0.27, -73.76 167.62 80
6 06/28/2024 14:59:47 0.02, -75.25 0.72, -78.60 381.44 80
7 06/30/2024 14:45:00 0.02, -75.27 -0.16, -74.40 99.50 80
8 07/01/2024 03:05:02 -0.02, -75.27 -0.89, -79.26 454.17 80
9 07/03/2024 02:44:55 -0.03, -75.30 0.02, -75.06 27.29 80
10 07/05/2024 14:47:22 0.02, -75.35 0.10, -75.69 39.60 80
